Ephrata, WA
on Wednesday, December 19, 2012

Wednesday
Previous Day Next Day
Daily Summary
 ActualAverageRecord
Temperature
Mean Temperature °F 26°F  
Max Temperature 35°F 32°F 48°F (1957)
Min Temperature 15°F 20°F -7°F (1984)
Degree Days
Heating Degree Days 40 39  
Month to date heating degree days 585 701  
Since 1 July heating degree days 1845 2120  
Cooling Degree Days 0 0  
Month to date cooling degree days 0 0  
Year to date cooling degree days 837 772  
Moisture
Dew Point 25°F   
Average Humidity 91    
Maximum Humidity 100    
Minimum Humidity 82    
Precipitation
Precipitation 0.01 in 0.04 in 0.49 in (1981)
Month to date precipitation 1.20 0.77  
Year to date precipitation 8.15 7.38  
Wind
Wind Speed 7 mph   
Max Wind Speed 17 mph   
Max Gust Speed 21 mph   
Visibility 6 miles   
Events Snow   

Key: T is trace of precipitation, MM is missing value
Source: NWS Daily Summary
Time(PST)TemperatureDew PointHumidity Pressure Visibility Wind DirectionWind SpeedGust SpeedPrecipitationEvents Conditions
12:53 AM 16.0°F 12.0°F 84% 30.02 in 10.0 miles North 5.8 mph - N/A   Clear
1:53 AM 18.0°F 15.1°F 88% 30.03 in 10.0 miles North 5.8 mph - N/A   Partly Cloudy
2:01 AM 19.4°F 15.8°F 86% 29.98 in 10.0 miles North 6.9 mph - N/A   Mostly Cloudy
2:09 AM 19.4°F 17.6°F 93% 29.97 in 2.5 miles North 9.2 mph - N/A   Mostly Cloudy
2:17 AM 19.4°F 17.6°F 93% 29.97 in 1.5 miles North 10.4 mph - N/A   Overcast
2:22 AM 19.4°F 19.4°F 100% 29.97 in 3.0 miles North 10.4 mph - N/A   Mostly Cloudy
2:38 AM 19.4°F 19.4°F 100% 29.97 in 10.0 miles North 9.2 mph - N/A   Scattered Clouds
2:53 AM 19.9°F 19.0°F 96% 30.02 in 10.0 miles North 9.2 mph - N/A   Partly Cloudy
3:53 AM 21.0°F 19.0°F 92% 30.03 in 10.0 miles North 8.1 mph - N/A   Mostly Cloudy
4:01 AM 21.2°F 19.4°F 93% 29.98 in 10.0 miles North 9.2 mph - N/A   Overcast
4:53 AM 21.9°F 19.9°F 92% 30.02 in 10.0 miles North 8.1 mph - N/A   Overcast
5:53 AM 23.0°F 21.0°F 92% 30.02 in 9.0 miles North 8.1 mph - N/A   Overcast
6:53 AM 23.0°F 21.0°F 92% 30.01 in 10.0 miles North 8.1 mph - N/A   Overcast
7:12 AM 23.0°F 21.2°F 93% 29.96 in 10.0 miles North 8.1 mph - N/A   Overcast
7:34 AM 23.0°F 21.2°F 93% 29.96 in 2.0 miles North 9.2 mph - 0.00 in Snow Light Snow
7:42 AM 23.0°F 21.2°F 93% 29.96 in 1.8 miles North 9.2 mph - 0.00 in Snow Light Snow
7:53 AM 24.1°F 21.0°F 88% 30.02 in 1.5 miles North 8.1 mph - 0.00 in Snow Light Snow
8:07 AM 24.8°F 21.2°F 86% 29.96 in 2.5 miles North 9.2 mph - 0.00 in Snow Light Snow
8:15 AM 24.8°F 21.2°F 86% 29.96 in 3.0 miles North 9.2 mph - 0.00 in Snow Light Snow
8:24 AM 24.8°F 21.2°F 86% 29.95 in 3.0 miles North 8.1 mph - 0.00 in Snow Light Snow
8:32 AM 24.8°F 21.2°F 86% 29.95 in 7.0 miles North 8.1 mph - 0.00 in   Overcast
8:53 AM 25.0°F 21.9°F 88% 30.01 in 10.0 miles North 8.1 mph - 0.00 in   Overcast
9:51 AM 26.6°F 24.8°F 93% 29.95 in 10.0 miles North 6.9 mph - N/A   Overcast
9:53 AM 26.1°F 24.1°F 92% 30.01 in 10.0 miles North 6.9 mph - N/A   Overcast
10:53 AM 28.0°F 25.0°F 88% 29.99 in 10.0 miles North 6.9 mph - N/A   Overcast
11:16 AM 28.4°F 24.8°F 86% 29.92 in 2.5 miles North 6.9 mph - 0.00 in Snow Light Snow
11:25 AM 28.4°F 26.6°F 93% 29.92 in 1.8 miles North 5.8 mph - 0.00 in Snow Light Snow
11:45 AM 30.2°F 26.6°F 86% 29.92 in 0.8 miles Calm Calm - 0.00 in Snow Light Snow
11:53 AM 30.0°F 28.0°F 92% 29.97 in 2.0 miles ESE 3.5 mph - 0.00 in Snow Light Snow
12:12 PM 30.2°F 28.4°F 93% 29.91 in 1.2 miles SSE 10.4 mph - 0.00 in Snow Light Snow
12:26 PM 30.2°F 28.4°F 93% 29.90 in 1.2 miles SSE 12.7 mph - 0.00 in Snow Light Snow
12:53 PM 30.9°F 28.9°F 92% 29.95 in 0.8 miles SSE 12.7 mph - 0.00 in Snow Light Snow
12:57 PM 30.2°F 28.4°F 93% 29.89 in 1.0 miles SSE 13.8 mph - 0.01 in Snow Light Snow
1:12 PM 30.2°F 30.2°F 100% 29.89 in 1.2 miles SSE 13.8 mph - 0.01 in Snow Light Snow
1:21 PM 30.2°F 30.2°F 100% 29.89 in 1.0 miles SSE 11.5 mph - 0.01 in Snow Light Snow
1:53 PM 32.0°F 30.0°F 92% 29.93 in 1.8 miles SSE 15.0 mph - 0.01 in Snow Light Snow
2:23 PM 32.0°F 30.2°F 93% 29.88 in 1.8 miles SSE 9.2 mph - 0.00 in Snow Light Snow
2:32 PM 32.0°F 30.2°F 93% 29.87 in 2.5 miles SSE 11.5 mph - 0.00 in Snow Light Snow
2:40 PM 32.0°F 30.2°F 93% 29.87 in 4.0 miles SE 11.5 mph - 0.00 in Snow Light Snow
2:53 PM 32.0°F 30.0°F 92% 29.92 in 8.0 miles SE 10.4 mph - 0.00 in   Overcast
3:53 PM 32.0°F 30.9°F 96% 29.91 in 10.0 miles SSE 8.1 mph - N/A   Overcast
4:53 PM 33.1°F 30.9°F 92% 29.88 in 10.0 miles SE 9.2 mph - N/A   Overcast
5:17 PM 33.8°F 30.2°F 87% 29.83 in 10.0 miles SE 10.4 mph - N/A   Overcast
5:49 PM 33.8°F 30.2°F 87% 29.82 in 10.0 miles SE 5.8 mph - N/A   Overcast
5:53 PM 33.1°F 30.9°F 92% 29.87 in 10.0 miles SE 8.1 mph - N/A   Overcast
6:53 PM 34.0°F 30.0°F 85% 29.86 in 10.0 miles SSE 5.8 mph - N/A   Overcast
7:53 PM 34.0°F 30.0°F 85% 29.85 in 10.0 miles SSE 4.6 mph - N/A   Overcast
8:53 PM 34.0°F 28.0°F 79% 29.84 in 10.0 miles SSE 3.5 mph - N/A   Overcast
9:53 PM 33.1°F 28.9°F 85% 29.83 in 10.0 miles NE 3.5 mph - N/A   Overcast
10:53 PM 33.1°F 28.9°F 85% 29.82 in 10.0 miles North 4.6 mph - N/A   Overcast
11:53 PM 33.1°F 28.9°F 85% 29.80 in 10.0 miles North 4.6 mph - N/A   Overcast
Moon Phase
Dec. 19 Dec. 20 Dec. 28 Jan. 04 Jan. 11
Sunrise:07:41 AM (PST) Moon Rise:11:25 AM (PST)12/19
Sunset:04:09 PM (PST) Moon Set:No Moon Set/

Copyright © 2014 The Weather Underground, Inc.